When you browse on this site, cookies collect data to enhance your experience and personalize the content and advertising you see.
Visit our Privacy Policy to learn more. By continuing to use the site, you agree to this use of cookies and data.
  • în România
  • Lista ţărilor
  • Pe 7 zile
  • Temperatura apei
  • Hartă satelitară
  • Meteo pe hartă
  • Widget-uri
  • user-avatar
    Intrare

    Meteo pe oră la Truto

    Astăzi, 19 Aprilie, Vineri

    Timp Temperatura Precipitaţii Vânt Presiune Umiditate
    00:00 +11°C° 0 mm 6 m/s 765 mmHg 78%
    01:00 +11°C° 0 mm 6 m/s 765 mmHg 79%
    02:00 +10°C° 0 mm 5 m/s 765 mmHg 79%
    03:00 +10°C° 0 mm 5 m/s 765 mmHg 79%
    04:00 +10°C° 0 mm 5 m/s 765 mmHg 79%
    05:00 +10°C° 0 mm 5 m/s 766 mmHg 79%
    06:00 +11°C° 0 mm 4 m/s 766 mmHg 79%
    07:00 +12°C° 0 mm 5 m/s 766 mmHg 77%
    08:00 +13°C° 0 mm 5 m/s 766 mmHg 76%
    09:00 +14°C° 0 mm 5 m/s 767 mmHg 74%
    10:00 +15°C° 0 mm 5 m/s 767 mmHg 73%
    11:00 +16°C° 0 mm 5 m/s 768 mmHg 72%
    12:00 +18°C° 0 mm 4 m/s 768 mmHg 71%
    13:00 +18°C° 0 mm 4 m/s 768 mmHg 71%
    14:00 +18°C° 0 mm 4 m/s 768 mmHg 71%
    15:00 +19°C° 0 mm 3 m/s 768 mmHg 71%
    16:00 +18°C° 0 mm 3 m/s 768 mmHg 74%
    17:00 +18°C° 0 mm 2 m/s 768 mmHg 77%
    18:00 +17°C° 0 mm 2 m/s 768 mmHg 81%
    19:00 +16°C° 0 mm 1 m/s 769 mmHg 82%
    20:00 +15°C° 0 mm 1 m/s 769 mmHg 83%
    21:00 +14°C° 0 mm 1 m/s 770 mmHg 84%
    22:00 +14°C° 0 mm 1 m/s 770 mmHg 84%
    23:00 +14°C° 0 mm 2 m/s 770 mmHg 85%

    Mâine, 20 Aprilie, Sâmbătă

    Timp Temperatura Precipitaţii Vânt Presiune Umiditate
    00:00 +14°C° 0 mm 2 m/s 770 mmHg 86%
    01:00 +14°C° 0 mm 2 m/s 770 mmHg 87%
    02:00 +14°C° 0 mm 2 m/s 770 mmHg 87%
    03:00 +13°C° 0 mm 2 m/s 770 mmHg 88%
    04:00 +13°C° 0 mm 2 m/s 770 mmHg 88%
    05:00 +13°C° 0 mm 2 m/s 770 mmHg 88%
    06:00 +13°C° 0 mm 2 m/s 770 mmHg 88%
    07:00 +14°C° 0 mm 2 m/s 770 mmHg 84%
    08:00 +15°C° 0 mm 2 m/s 770 mmHg 79%
    09:00 +16°C° 0 mm 2 m/s 770 mmHg 75%
    10:00 +17°C° 0 mm 2 m/s 770 mmHg 71%
    11:00 +18°C° 0 mm 2 m/s 770 mmHg 67%
    12:00 +18°C° 0 mm 2 m/s 770 mmHg 63%
    13:00 +19°C° 0 mm 2 m/s 770 mmHg 64%
    14:00 +19°C° 0 mm 2 m/s 769 mmHg 64%
    15:00 +20°C° 0 mm 1 m/s 769 mmHg 65%
    16:00 +20°C° 0 mm 1 m/s 769 mmHg 70%
    17:00 +19°C° 0 mm 1 m/s 769 mmHg 74%
    18:00 +19°C° 0 mm 1 m/s 768 mmHg 79%
    19:00 +18°C° 0 mm 1 m/s 768 mmHg 81%
    20:00 +15°C° 0 mm 1 m/s 768 mmHg 83%
    21:00 +14°C° 0 mm 1 m/s 768 mmHg 84%
    22:00 +14°C° 0 mm 2 m/s 768 mmHg 85%
    23:00 +14°C° 0 mm 2 m/s 767 mmHg 86%

    Poimâine, 21 Aprilie, Duminică

    Timp Temperatura Precipitaţii Vânt Presiune Umiditate
    00:00 +13°C° 0 mm 2 m/s 767 mmHg 87%
    01:00 +13°C° 0 mm 2 m/s 767 mmHg 88%
    02:00 +13°C° 0 mm 2 m/s 766 mmHg 88%
    03:00 +13°C° 0 mm 2 m/s 766 mmHg 89%
    04:00 +13°C° 0 mm 2 m/s 765 mmHg 90%
    05:00 +13°C° 0 mm 2 m/s 765 mmHg 90%
    06:00 +13°C° 0 mm 2 m/s 764 mmHg 90%
    07:00 +14°C° 0 mm 2 m/s 764 mmHg 86%
    08:00 +15°C° 0 mm 2 m/s 764 mmHg 81%
    09:00 +16°C° 0 mm 2 m/s 764 mmHg 76%
    10:00 +16°C° 0 mm 2 m/s 763 mmHg 73%
    11:00 +17°C° 0 mm 3 m/s 763 mmHg 70%
    12:00 +18°C° 0 mm 3 m/s 763 mmHg 68%
    13:00 +18°C° 0 mm 3 m/s 762 mmHg 69%
    14:00 +18°C° 0 mm 3 m/s 761 mmHg 69%
    15:00 +18°C° 0 mm 3 m/s 761 mmHg 70%
    16:00 +17°C° 0 mm 3 m/s 760 mmHg 74%
    17:00 +16°C° 0 mm 3 m/s 760 mmHg 78%
    18:00 +14°C° 0 mm 3 m/s 759 mmHg 82%
    19:00 +13°C° 0 mm 3 m/s 759 mmHg 84%
    20:00 +12°C° 0 mm 3 m/s 758 mmHg 86%
    21:00 +11°C° 0 mm 3 m/s 758 mmHg 88%
    22:00 +10°C° 0 mm 4 m/s 757 mmHg 88%
    23:00 +10°C° 0 mm 4 m/s 757 mmHg 88%

    22 Aprilie, Luni

    Timp Temperatura Precipitaţii Vânt Presiune Umiditate
    00:00 +10°C° 0 mm 4 m/s 756 mmHg 88%
    01:00 +10°C° 0 mm 4 m/s 755 mmHg 88%
    02:00 +9°C° 0 mm 5 m/s 754 mmHg 88%
    03:00 +9°C° 0 mm 5 m/s 753 mmHg 88%
    04:00 +9°C° 0 mm 5 m/s 753 mmHg 89%
    05:00 +10°C° 0 mm 5 m/s 752 mmHg 90%
    06:00 +10°C° 0 mm 5 m/s 752 mmHg 91%
    07:00 +12°C° 0 mm 5 m/s 751 mmHg 90%
    08:00 +13°C° 0 mm 5 m/s 751 mmHg 88%
    09:00 +14°C° 0 mm 5 m/s 751 mmHg 86%
    10:00 +15°C° 0.1 mm 4 m/s 750 mmHg 84%
    11:00 +15°C° 0.1 mm 4 m/s 750 mmHg 82%
    12:00 +17°C° 0.1 mm 4 m/s 750 mmHg 80%
    13:00 +17°C° 0.4 mm 4 m/s 749 mmHg 80%
    14:00 +17°C° 0.4 mm 3 m/s 749 mmHg 81%
    15:00 +17°C° 0.4 mm 3 m/s 748 mmHg 82%
    16:00 +16°C° 0.4 mm 3 m/s 748 mmHg 84%
    17:00 +14°C° 0.4 mm 3 m/s 748 mmHg 86%
    18:00 +14°C° 0.4 mm 2 m/s 747 mmHg 89%
    19:00 +14°C° 0 mm 2 m/s 747 mmHg 90%
    20:00 +13°C° 0 mm 2 m/s 747 mmHg 90%
    21:00 +12°C° 0 mm 2 m/s 747 mmHg 91%
    22:00 +12°C° 0.1 mm 2 m/s 746 mmHg 91%
    23:00 +12°C° 0.1 mm 2 m/s 746 mmHg 92%

    23 Aprilie, Marţi

    Timp Temperatura Precipitaţii Vânt Presiune Umiditate
    00:00 +10°C° 0.1 mm 2 m/s 745 mmHg 92%
    01:00 +10°C° 0 mm 2 m/s 745 mmHg 92%
    02:00 +10°C° 0 mm 2 m/s 745 mmHg 92%
    03:00 +10°C° 0 mm 3 m/s 744 mmHg 92%
    04:00 +10°C° 0 mm 3 m/s 744 mmHg 93%
    05:00 +10°C° 0 mm 3 m/s 744 mmHg 93%
    06:00 +11°C° 0 mm 3 m/s 744 mmHg 94%
    07:00 +12°C° 0 mm 3 m/s 744 mmHg 92%
    08:00 +13°C° 0 mm 4 m/s 745 mmHg 89%
    09:00 +14°C° 0 mm 4 m/s 745 mmHg 87%
    10:00 +15°C° 0 mm 4 m/s 745 mmHg 83%
    11:00 +15°C° 0 mm 4 m/s 745 mmHg 79%
    12:00 +16°C° 0 mm 5 m/s 745 mmHg 75%
    13:00 +17°C° 0.2 mm 4 m/s 745 mmHg 75%
    14:00 +17°C° 0.2 mm 4 m/s 744 mmHg 74%
    15:00 +17°C° 0.2 mm 4 m/s 744 mmHg 74%
    16:00 +17°C° 0.1 mm 4 m/s 744 mmHg 77%
    17:00 +15°C° 0.1 mm 4 m/s 744 mmHg 79%
    18:00 +14°C° 0.1 mm 4 m/s 744 mmHg 82%
    19:00 +13°C° 0 mm 4 m/s 744 mmHg 85%
    20:00 +12°C° 0 mm 4 m/s 744 mmHg 87%
    21:00 +10°C° 0 mm 5 m/s 744 mmHg 89%
    22:00 +10°C° 0 mm 5 m/s 744 mmHg 91%
    23:00 +10°C° 0 mm 5 m/s 744 mmHg 93%

    24 Aprilie, Miercuri

    Timp Temperatura Precipitaţii Vânt Presiune Umiditate
    00:00 +10°C° 0 mm 5 m/s 744 mmHg 95%
    01:00 +10°C° 0 mm 5 m/s 743 mmHg 94%
    02:00 +10°C° 0 mm 5 m/s 743 mmHg 94%
    03:00 +11°C° 0 mm 4 m/s 743 mmHg 93%
    04:00 +10°C° 0 mm 6 m/s 743 mmHg 94%
    05:00 +10°C° 0 mm 7 m/s 743 mmHg 94%
    06:00 +10°C° 0 mm 8 m/s 744 mmHg 95%
    07:00 +10°C° 0 mm 9 m/s 744 mmHg 91%
    08:00 +10°C° 0 mm 9 m/s 745 mmHg 86%
    09:00 +10°C° 0 mm 9 m/s 745 mmHg 82%
    10:00 +9°C° 0 mm 10 m/s 746 mmHg 79%
    11:00 +11°C° 0 mm 10 m/s 746 mmHg 77%
    12:00 +11°C° 0 mm 10 m/s 746 mmHg 74%
    13:00 +11°C° 0.2 mm 11 m/s 746 mmHg 74%
    14:00 +11°C° 0.2 mm 11 m/s 746 mmHg 75%
    15:00 +10°C° 0.2 mm 12 m/s 746 mmHg 76%
    16:00 +11°C° 0.1 mm 11 m/s 746 mmHg 78%
    17:00 +9°C° 0.1 mm 11 m/s 746 mmHg 80%
    18:00 +9°C° 0.1 mm 11 m/s 746 mmHg 82%
    19:00 +9°C° 0.1 mm 10 m/s 746 mmHg 84%
    20:00 +10°C° 0.1 mm 9 m/s 747 mmHg 86%
    21:00 +9°C° 0.1 mm 8 m/s 747 mmHg 88%
    22:00 +9°C° 0.1 mm 8 m/s 747 mmHg 88%
    23:00 +9°C° 0.1 mm 8 m/s 747 mmHg 88%
    Arată mai mult